When you browse on this site, cookies collect data to enhance your experience and personalize the content and advertising you see.
Visit our Privacy Policy to learn more. By continuing to use the site, you agree to this use of cookies and data.
  • în România
  • Lista ţărilor
  • Pe 7 zile
  • Temperatura apei
  • Hartă satelitară
  • Meteo pe hartă
  • Widget-uri
  • user-avatar
    Intrare

    Meteo pe oră la Karbala

    Astăzi, 21 Ianuarie, Luni

    Timp Temperatura Precipitaţii Vânt Presiune Umiditate
    00:00 +9°C° 0 mm 1 m/s 765 mmHg 42%
    01:00 +9°C° 0 mm 1 m/s 764 mmHg 43%
    02:00 +9°C° 0 mm 1 m/s 764 mmHg 44%
    03:00 +9°C° 0 mm 1 m/s 764 mmHg 44%
    04:00 +9°C° 0 mm 1 m/s 764 mmHg 45%
    05:00 +9°C° 0 mm 1 m/s 764 mmHg 45%
    06:00 +9°C° 0 mm 1 m/s 764 mmHg 45%
    07:00 +10°C° 0 mm 1 m/s 764 mmHg 43%
    08:00 +10°C° 0 mm 1 m/s 764 mmHg 41%
    09:00 +11°C° 0 mm 1 m/s 764 mmHg 39%
    10:00 +12°C° 0 mm 1 m/s 764 mmHg 36%
    11:00 +13°C° 0 mm 1 m/s 763 mmHg 33%
    12:00 +14°C° 0 mm 1 m/s 763 mmHg 30%
    13:00 +14°C° 0 mm 1 m/s 763 mmHg 28%
    14:00 +15°C° 0 mm 1 m/s 762 mmHg 26%
    15:00 +15°C° 0 mm 1 m/s 762 mmHg 25%
    16:00 +15°C° 0 mm 1 m/s 762 mmHg 26%
    17:00 +14°C° 0 mm 1 m/s 762 mmHg 28%
    18:00 +14°C° 0 mm 1 m/s 762 mmHg 29%
    19:00 +13°C° 0 mm 1 m/s 762 mmHg 30%
    20:00 +13°C° 0 mm 1 m/s 762 mmHg 31%
    21:00 +12°C° 0 mm 2 m/s 762 mmHg 33%
    22:00 +12°C° 0 mm 2 m/s 762 mmHg 34%
    23:00 +12°C° 0 mm 2 m/s 762 mmHg 35%

    Mâine, 22 Ianuarie, Marţi

    Timp Temperatura Precipitaţii Vânt Presiune Umiditate
    00:00 +10°C° 0 mm 2 m/s 762 mmHg 36%
    01:00 +10°C° 0 mm 2 m/s 762 mmHg 37%
    02:00 +10°C° 0 mm 2 m/s 762 mmHg 38%
    03:00 +9°C° 0 mm 2 m/s 762 mmHg 40%
    04:00 +9°C° 0 mm 2 m/s 761 mmHg 41%
    05:00 +8°C° 0 mm 2 m/s 761 mmHg 42%
    06:00 +9°C° 0 mm 1 m/s 761 mmHg 43%
    07:00 +10°C° 0 mm 1 m/s 761 mmHg 41%
    08:00 +11°C° 0 mm 1 m/s 762 mmHg 39%
    09:00 +12°C° 0 mm 1 m/s 762 mmHg 37%
    10:00 +13°C° 0 mm 1 m/s 762 mmHg 34%
    11:00 +14°C° 0 mm 2 m/s 762 mmHg 32%
    12:00 +15°C° 0 mm 2 m/s 761 mmHg 30%
    13:00 +16°C° 0 mm 2 m/s 761 mmHg 29%
    14:00 +16°C° 0 mm 2 m/s 761 mmHg 28%
    15:00 +17°C° 0 mm 2 m/s 760 mmHg 27%
    16:00 +16°C° 0 mm 2 m/s 760 mmHg 28%
    17:00 +15°C° 0 mm 2 m/s 760 mmHg 30%
    18:00 +15°C° 0 mm 2 m/s 760 mmHg 32%
    19:00 +14°C° 0 mm 2 m/s 760 mmHg 33%
    20:00 +13°C° 0 mm 1 m/s 760 mmHg 34%
    21:00 +13°C° 0 mm 1 m/s 761 mmHg 35%
    22:00 +13°C° 0 mm 1 m/s 761 mmHg 35%
    23:00 +12°C° 0 mm 1 m/s 761 mmHg 36%

    Poimâine, 23 Ianuarie, Miercuri

    Timp Temperatura Precipitaţii Vânt Presiune Umiditate
    00:00 +12°C° 0 mm 1 m/s 761 mmHg 37%
    01:00 +11°C° 0 mm 1 m/s 761 mmHg 37%
    02:00 +11°C° 0 mm 1 m/s 761 mmHg 38%
    03:00 +11°C° 0 mm 1 m/s 761 mmHg 38%
    04:00 +10°C° 0 mm 1 m/s 761 mmHg 38%
    05:00 +10°C° 0 mm 1 m/s 761 mmHg 38%
    06:00 +9°C° 0 mm 2 m/s 761 mmHg 38%
    07:00 +11°C° 0 mm 1 m/s 761 mmHg 36%
    08:00 +12°C° 0 mm 1 m/s 762 mmHg 33%
    09:00 +13°C° 0 mm 1 m/s 762 mmHg 31%
    10:00 +14°C° 0 mm 1 m/s 762 mmHg 28%
    11:00 +15°C° 0 mm 1 m/s 762 mmHg 26%
    12:00 +18°C° 0 mm 1 m/s 762 mmHg 23%
    13:00 +18°C° 0 mm 1 m/s 761 mmHg 22%
    14:00 +19°C° 0 mm 1 m/s 761 mmHg 22%
    15:00 +19°C° 0 mm 1 m/s 761 mmHg 21%
    16:00 +18°C° 0 mm 1 m/s 761 mmHg 23%
    17:00 +18°C° 0 mm 1 m/s 761 mmHg 25%
    18:00 +16°C° 0 mm 1 m/s 761 mmHg 26%
    19:00 +15°C° 0 mm 1 m/s 761 mmHg 27%
    20:00 +15°C° 0 mm 1 m/s 762 mmHg 28%
    21:00 +14°C° 0 mm 1 m/s 762 mmHg 29%
    22:00 +14°C° 0 mm 1 m/s 762 mmHg 30%
    23:00 +13°C° 0 mm 1 m/s 762 mmHg 31%

    24 Ianuarie, Joi

    Timp Temperatura Precipitaţii Vânt Presiune Umiditate
    00:00 +13°C° 0 mm 1 m/s 762 mmHg 32%
    01:00 +13°C° 0 mm 1 m/s 762 mmHg 33%
    02:00 +12°C° 0 mm 1 m/s 762 mmHg 34%
    03:00 +12°C° 0 mm 1 m/s 762 mmHg 35%
    04:00 +11°C° 0 mm 1 m/s 762 mmHg 36%
    05:00 +11°C° 0 mm 1 m/s 762 mmHg 36%
    06:00 +11°C° 0 mm 1 m/s 762 mmHg 37%
    07:00 +12°C° 0 mm 1 m/s 762 mmHg 34%
    08:00 +13°C° 0 mm 1 m/s 763 mmHg 31%
    09:00 +15°C° 0 mm 2 m/s 763 mmHg 29%
    10:00 +16°C° 0 mm 2 m/s 763 mmHg 26%
    11:00 +18°C° 0 mm 1 m/s 763 mmHg 24%
    12:00 +20°C° 0 mm 1 m/s 763 mmHg 21%
    13:00 +20°C° 0 mm 2 m/s 762 mmHg 20%
    14:00 +20°C° 0 mm 2 m/s 761 mmHg 19%
    15:00 +21°C° 0 mm 2 m/s 760 mmHg 19%
    16:00 +20°C° 0 mm 2 m/s 761 mmHg 20%
    17:00 +19°C° 0 mm 2 m/s 761 mmHg 22%
    18:00 +18°C° 0 mm 2 m/s 761 mmHg 24%
    19:00 +18°C° 0 mm 3 m/s 761 mmHg 24%
    20:00 +17°C° 0 mm 4 m/s 761 mmHg 25%
    21:00 +17°C° 0 mm 4 m/s 761 mmHg 25%
    22:00 +15°C° 0 mm 4 m/s 761 mmHg 26%
    23:00 +16°C° 0 mm 3 m/s 761 mmHg 27%

    25 Ianuarie, Vineri

    Timp Temperatura Precipitaţii Vânt Presiune Umiditate
    00:00 +14°C° 0 mm 3 m/s 761 mmHg 27%
    01:00 +14°C° 0 mm 4 m/s 761 mmHg 27%
    02:00 +14°C° 0 mm 4 m/s 761 mmHg 27%
    03:00 +14°C° 0 mm 5 m/s 760 mmHg 27%
    04:00 +14°C° 0 mm 5 m/s 760 mmHg 27%
    05:00 +14°C° 0 mm 5 m/s 760 mmHg 28%
    06:00 +14°C° 0 mm 5 m/s 760 mmHg 28%
    07:00 +14°C° 0 mm 5 m/s 760 mmHg 27%
    08:00 +15°C° 0 mm 6 m/s 760 mmHg 27%
    09:00 +15°C° 0 mm 6 m/s 761 mmHg 26%
    10:00 +17°C° 0 mm 6 m/s 760 mmHg 25%
    11:00 +20°C° 0 mm 7 m/s 760 mmHg 24%
    12:00 +21°C° 0 mm 7 m/s 760 mmHg 23%
    13:00 +22°C° 0 mm 6 m/s 759 mmHg 23%
    14:00 +23°C° 0 mm 6 m/s 759 mmHg 24%
    15:00 +23°C° 0 mm 6 m/s 758 mmHg 25%
    16:00 +22°C° 0 mm 5 m/s 758 mmHg 27%
    17:00 +21°C° 0 mm 4 m/s 758 mmHg 30%
    18:00 +20°C° 0 mm 4 m/s 758 mmHg 33%
    19:00 +20°C° 0 mm 4 m/s 758 mmHg 34%
    20:00 +19°C° 0 mm 4 m/s 758 mmHg 36%
    21:00 +19°C° 0 mm 4 m/s 758 mmHg 38%
    22:00 +18°C° 0 mm 4 m/s 758 mmHg 39%
    23:00 +18°C° 0 mm 3 m/s 758 mmHg 40%

    26 Ianuarie, Sâmbătă

    Timp Temperatura Precipitaţii Vânt Presiune Umiditate
    00:00 +17°C° 0 mm 3 m/s 758 mmHg 41%
    01:00 +17°C° 0 mm 3 m/s 758 mmHg 43%
    02:00 +16°C° 0 mm 3 m/s 758 mmHg 44%
    03:00 +16°C° 0 mm 3 m/s 758 mmHg 45%
    04:00 +14°C° 0 mm 4 m/s 758 mmHg 47%
    05:00 +14°C° 0 mm 4 m/s 758 mmHg 49%
    06:00 +14°C° 0 mm 4 m/s 758 mmHg 51%
    07:00 +14°C° 0 mm 5 m/s 758 mmHg 51%
    08:00 +15°C° 0 mm 5 m/s 758 mmHg 51%
    09:00 +16°C° 0 mm 6 m/s 758 mmHg 51%
    10:00 +19°C° 0 mm 6 m/s 758 mmHg 47%
    11:00 +20°C° 0 mm 6 m/s 758 mmHg 43%
    12:00 +22°C° 0 mm 6 m/s 757 mmHg 39%
    13:00 +23°C° 0 mm 6 m/s 757 mmHg 37%
    14:00 +25°C° 0 mm 5 m/s 756 mmHg 34%
    15:00 +26°C° 0 mm 5 m/s 756 mmHg 32%
    16:00 +25°C° 0 mm 4 m/s 756 mmHg 35%
    17:00 +23°C° 0 mm 4 m/s 756 mmHg 38%
    18:00 +22°C° 0 mm 3 m/s 756 mmHg 41%
    19:00 +21°C° 0 mm 3 m/s 756 mmHg 43%
    20:00 +21°C° 0 mm 3 m/s 756 mmHg 46%
    21:00 +20°C° 0 mm 3 m/s 757 mmHg 48%
    22:00 +20°C° 0 mm 3 m/s 757 mmHg 49%
    23:00 +19°C° 0 mm 3 m/s 756 mmHg 50%
    Arată mai mult